Horseshoe Bay, TX

8:13 PM CDT on March 22, 2017 (GMT -0500)
Horseshoe Bay

Weather History for KDZB - January, 2014

Change the Weather History Date:

Saturday, January 11, 2014

  Actual Average (KBMQ) Record (KBMQ)
Temperature  
Mean Temperature 54 °F -  
Max Temperature 70 °F 57 °F 82 °F (2000)
Min Temperature 39 °F 37 °F 21 °F (1997)
Degree Days  
Heating Degree Days 10    
Growing Degree Days 4 (Base 50)    
Moisture  
Dew Point 33 °F    
Average Humidity 51    
Maximum Humidity 100    
Minimum Humidity 15    
Precipitation  
Precipitation 0.00 in - - ()
Sea Level Pressure  
Sea Level Pressure 30.07 in    
Wind  
Wind Speed 3 mph (West)    
Max Wind Speed 8 mph    
Max Gust Speed -    
Visibility 10 miles    
Events      
Averages and records for this station are not official NWS values.
T = Trace of Precipitation, MM = Missing Value Source: NWS Daily Summary

Daily Weather History Graph

Daily Weather History Graph

Search for Another Location

Airport or City:

Trip Planner

Search our weather history database for the weather conditions in past years. The results will help you decide how hot, cold, wet, or windy it might be!

Date:

Astronomy

Jan. 11, 2014 Rise Set
Actual Time 6:31 AM MST 4:51 PM MST
Civil Twilight 6:05 AM MST 5:17 PM MST
Nautical Twilight 5:35 AM MST 5:47 PM MST
Astronomical Twilight 5:06 AM MST 6:16 PM MST
Moon 1:33 PM MST (1/11) 2:41 AM MST (1/11)
Length of Visible Light 11h 12m
Length of Day
10h 20m
Waxing Gibbous, 83% of the Moon is Illuminated
Jan 11
Waxing Gibbous
Jan 15
Full
Jan 23
Last Quarter
Jan 30
New
Feb 6
First Quarter

Hourly Weather History & Observations

Time (MST) Temp. Windchill Dew Point Humidity Pressure Visibility Wind Dir Wind Speed Gust Speed Precip Events Conditions
12:15 AM 56.1 °F - 48.6 °F 76% 29.87 in 10.0 mi WSW 4.6 mph - N/A   Clear
12:35 AM 55.2 °F - 47.8 °F 76% 29.86 in 10.0 mi SW 5.8 mph - N/A   Clear
12:55 AM 55.4 °F - 47.5 °F 75% 29.86 in 10.0 mi SW 4.6 mph - N/A   Clear
1:15 AM 56.8 °F - 46.8 °F 69% 29.88 in 10.0 mi WSW 8.1 mph - N/A   Clear
1:35 AM 52.2 °F - 46.6 °F 81% 29.90 in 10.0 mi Calm Calm - N/A   Clear
1:55 AM 50.4 °F - 46.8 °F 87% 29.90 in 10.0 mi Calm Calm - N/A   Clear
2:15 AM 47.7 °F - 47.1 °F 98% 29.90 in 10.0 mi Calm Calm - N/A   Clear
2:35 AM 46.2 °F - 46.2 °F 100% 29.92 in 10.0 mi Calm Calm - N/A   Clear
2:55 AM 49.8 °F - 47.1 °F 90% 29.93 in 10.0 mi West 3.5 mph - N/A   Clear
3:15 AM 51.8 °F - 43.2 °F 72% 29.95 in 10.0 mi North 3.5 mph - N/A   Clear
3:35 AM 46.9 °F - 42.1 °F 83% 29.95 in 10.0 mi Calm Calm - N/A   Clear
3:55 AM 45.1 °F 43.7 °F 44.8 °F 99% 29.97 in 10.0 mi NW 3.5 mph - N/A   Clear
4:15 AM 49.8 °F - 39.7 °F 68% 29.98 in 10.0 mi NNW 5.8 mph - N/A   Clear
4:35 AM 47.1 °F - 41.0 °F 79% 30.01 in 10.0 mi Calm Calm - N/A   Clear
4:55 AM 45.5 °F - 40.5 °F 83% 30.01 in 10.0 mi Calm Calm - N/A   Clear
5:15 AM 45.0 °F - 40.3 °F 84% 30.02 in 10.0 mi Calm Calm - N/A   Clear
5:35 AM 41.0 °F - 36.3 °F 83% 30.03 in 10.0 mi Calm Calm - N/A   Clear
5:55 AM 40.1 °F - 38.7 °F 95% 30.03 in 10.0 mi Calm Calm - N/A   Clear
6:15 AM 39.0 °F - 37.0 °F 93% 30.05 in 10.0 mi Calm Calm - N/A   Clear
6:35 AM 39.7 °F - 35.6 °F 85% 30.07 in 10.0 mi Calm Calm - N/A   Clear
6:55 AM 42.6 °F - 33.6 °F 70% 30.07 in 10.0 mi Calm Calm - N/A   Clear
7:15 AM 44.2 °F 42.7 °F 34.9 °F 70% 30.08 in 10.0 mi WSW 3.5 mph - N/A   Clear
7:35 AM 49.3 °F - 34.9 °F 58% 30.10 in 10.0 mi WSW 3.5 mph - N/A   Clear
7:55 AM 51.3 °F - 35.4 °F 55% 30.12 in 10.0 mi Calm Calm - N/A   Clear
8:15 AM 50.2 °F - 36.3 °F 59% 30.13 in 10.0 mi NNW 3.5 mph - N/A   Clear
8:35 AM 50.0 °F - 37.2 °F 62% 30.14 in 10.0 mi NNW 3.5 mph - N/A   Clear
8:55 AM 52.5 °F - 37.2 °F 56% 30.16 in 10.0 mi NW 4.6 mph - N/A   Clear
9:15 AM 54.1 °F - 37.6 °F 54% 30.17 in 10.0 mi NW 3.5 mph - N/A   Clear
9:35 AM 56.3 °F - 34.9 °F 45% 30.17 in 10.0 mi NW 6.9 mph - N/A   Clear
9:55 AM 57.4 °F - 35.2 °F 43% 30.17 in 10.0 mi NW 6.9 mph - N/A   Clear
10:15 AM 59.7 °F - 34.3 °F 39% 30.17 in 10.0 mi NW 4.6 mph - N/A   Clear
10:35 AM 61.7 °F - 32.5 °F 33% 30.16 in 10.0 mi NW 5.8 mph - N/A   Clear
10:55 AM 63.3 °F - 32.7 °F 32% 30.15 in 10.0 mi NW 5.8 mph - N/A   Clear
11:15 AM 64.8 °F - 32.4 °F 30% 30.15 in 10.0 mi NW 5.8 mph - N/A   Clear
11:35 AM 65.7 °F - 31.5 °F 28% 30.14 in 10.0 mi NW 5.8 mph - N/A   Clear
11:55 AM 67.3 °F - 31.1 °F 26% 30.13 in 10.0 mi North 3.5 mph - N/A   Clear
12:15 PM 67.8 °F - 29.1 °F 24% 30.12 in 10.0 mi NW 5.8 mph - N/A   Clear
12:35 PM 68.4 °F - 28.0 °F 22% 30.11 in 10.0 mi North 3.5 mph - N/A   Clear
12:55 PM 69.4 °F - 27.9 °F 21% 30.10 in 10.0 mi NNW 3.5 mph - N/A   Clear
1:15 PM 69.6 °F - 26.1 °F 20% 30.10 in 10.0 mi North 3.5 mph - N/A   Clear
1:35 PM 69.8 °F - 21.4 °F 16% 30.10 in 10.0 mi NW 5.8 mph - N/A   Clear
1:55 PM 70.7 °F - 24.3 °F 18% 30.10 in 10.0 mi WNW 4.6 mph - N/A   Clear
2:15 PM 70.0 °F - 23.0 °F 17% 30.09 in 10.0 mi NNW 3.5 mph - N/A   Clear
2:35 PM 70.7 °F - 22.5 °F 16% 30.09 in 10.0 mi NNW 3.5 mph - N/A   Clear
2:55 PM 70.5 °F - 21.2 °F 16% 30.08 in 10.0 mi Calm Calm - N/A   Clear
3:15 PM 70.5 °F - 21.0 °F 15% 30.09 in 10.0 mi Calm Calm - N/A   Clear
3:35 PM 69.8 °F - 21.4 °F 16% 30.09 in 10.0 mi Calm Calm - N/A   Clear
3:55 PM 69.3 °F - 21.2 °F 16% 30.09 in 10.0 mi Calm Calm - N/A   Clear
4:15 PM 68.7 °F - 23.7 °F 18% 30.09 in 10.0 mi Calm Calm - N/A   Clear
4:35 PM 65.8 °F - 25.7 °F 22% 30.09 in 10.0 mi Calm Calm - N/A   Clear
4:55 PM 56.5 °F - 30.4 °F 37% 30.09 in 10.0 mi Calm Calm - N/A   Clear
5:15 PM 52.0 °F - 32.9 °F 48% 30.09 in 10.0 mi Calm Calm - N/A   Clear
5:35 PM 49.1 °F - 32.9 °F 54% 30.09 in 10.0 mi South 3.5 mph - N/A   Clear
5:55 PM 47.3 °F - 32.0 °F 55% 30.10 in 10.0 mi South 3.5 mph - N/A   Clear
6:15 PM 47.3 °F - 31.5 °F 54% 30.10 in 10.0 mi South 3.5 mph - N/A   Clear
6:35 PM 45.1 °F 42.8 °F 31.3 °F 58% 30.10 in 10.0 mi South 4.6 mph - N/A   Clear
6:55 PM 44.1 °F 42.5 °F 30.9 °F 60% 30.10 in 10.0 mi SSE 3.5 mph - N/A   Clear
7:15 PM 43.0 °F 40.3 °F 30.6 °F 62% 30.11 in 10.0 mi South 4.6 mph - N/A   Clear
7:35 PM 42.3 °F 40.5 °F 30.6 °F 63% 30.11 in 10.0 mi South 3.5 mph - N/A   Clear
7:55 PM 42.4 °F 40.7 °F 30.4 °F 62% 30.12 in 10.0 mi SSE 3.5 mph - N/A   Clear
8:15 PM 49.1 °F - 25.7 °F 40% 30.12 in 10.0 mi South 3.5 mph - N/A   Clear
8:35 PM 48.6 °F - 24.6 °F 39% 30.12 in 10.0 mi SSE 4.6 mph - N/A   Clear
8:55 PM 54.1 °F - 24.4 °F 32% 30.12 in 10.0 mi South 6.9 mph - N/A   Clear
9:15 PM 54.1 °F - 25.3 °F 33% 30.12 in 10.0 mi South 8.1 mph - N/A   Clear
9:35 PM 54.9 °F - 26.4 °F 33% 30.12 in 10.0 mi South 8.1 mph - N/A   Clear
9:55 PM 55.6 °F - 26.6 °F 33% 30.11 in 10.0 mi South 8.1 mph - N/A   Clear
10:15 PM 55.0 °F - 27.5 °F 35% 30.11 in 10.0 mi South 6.9 mph - N/A   Clear
10:35 PM 54.9 °F - 27.9 °F 35% 30.10 in 10.0 mi South 5.8 mph - N/A   Clear
10:55 PM 54.7 °F - 28.4 °F 36% 30.10 in 10.0 mi Calm Calm - N/A   Clear
11:15 PM 49.8 °F - 29.8 °F 46% 30.10 in 10.0 mi Calm Calm - N/A   Clear
11:35 PM 49.1 °F - 30.2 °F 48% 30.10 in 10.0 mi Calm Calm - N/A   Clear
11:55 PM 47.1 °F - 30.2 °F 52% 30.09 in 10.0 mi Calm Calm - N/A   Clear